Wind_Speed
11 11 10 9 9 9 10 10 11 12 13 15 16 17 16 16 17 18 19 19 20 20 21 21 21 21 20 20 21 21 22 23 23 23 23 23 23 24 24 24 24 26 27
13 15 14 15 13 12 13 13 15 16 17 19 20 21 22 20 21 20 20 20 20 20 20 20 19 19 19 19 19 20 21 22 23 24 25 26 25 25 25 26 26 27 28
17 17 16 16 16 16 16 17 19 21 22 22 20 19 19 19 20 20 19 19 20 20 20 20 19 18 19 19 20 20 21 21 22 23 24 25 25 25 25 26 27 30 32
18 18 20 20 18 18 19 21 23 22 19 18 17 17 17 17 17 18 17 17 17 16 17 17 18 18 19 21 21 21 22 22 23 24 25 27 27 27 27 29 32 33 33
16 17 16 16 18 20 20 21 19 19 18 17 16 17 18 18 17 16 17 18 18 17 18 17 17 17 18 20 22 22 23 24 24 26 28 29 30 30 30 30 31 32 32
16 16 16 15 17 18 19 19 19 20 20 20 20 20 20 20 20 19 18 18 19 19 20 20 19 18 18 19 21 22 23 24 25 26 27 29 30 31 31 32 32 32 32
17 16 16 16 17 18 19 19 20 20 20 20 19 21 22 22 22 22 23 23 21 21 21 21 21 20 19 20 21 22 23 24 25 26 27 29 30 31 31 31 32 34 33
20 21 20 20 20 20 21 21 21 21 21 21 21 21 22 22 23 23 24 25 26 25 25 25 23 22 21 21 21 22 24 24 24 26 27 28 30 32 32 32 31 33 33
25 25 24 23 23 24 24 23 23 23 25 25 23 23 24 23 23 25 26 27 28 28 28 28 28 26 24 23 24 24 24 24 24 25 27 30 32 32 32 32 31 30 28
28 29 29 29 30 28 27 27 26 26 26 25 24 25 26 26 25 26 27 28 29 30 31 30 28 28 28 26 25 24 25 25 26 26 28 31 33 32 29 28 27 24 25
26 29 30 31 31 30 30 31 29 28 26 27 28 29 29 29 28 29 30 31 32 33 33 33 31 29 29 28 27 26 25 26 26 27 30 31 31 27 25 23 20 24 25
26 25 27 30 32 32 31 31 31 32 32 33 33 34 34 34 33 32 33 33 35 35 37 36 35 32 30 31 30 27 27 27 28 27 29 32 28 26 23 20 21 23 25
34 31 30 30 32 34 36 35 35 37 38 39 40 39 37 35 36 34 34 34 37 39 39 38 35 33 32 34 32 28 28 27 27 29 28 30 25 23 22 21 22 21 20
42 40 39 38 38 39 41 42 43 40 42 43 43 42 38 36 35 33 33 37 37 39 42 38 34 35 35 36 36 33 27 28 27 28 30 25 22 23 22 22 22 20 20
45 46 46 46 46 44 43 44 44 43 44 42 44 43 40 37 34 33 31 28 32 40 41 37 35 36 37 37 37 34 30 29 29 27 26 25 24 24 24 23 23 22 22
48 49 51 53 52 53 47 47 46 46 44 44 43 43 42 40 37 29 25 29 32 34 34 36 34 34 36 37 37 35 30 30 29 27 26 25 27 26 25 27 26 25 26
53 54 56 59 59 59 58 55 53 49 48 48 43 47 42 43 37 29 27 25 27 32 37 43 40 37 38 37 33 34 32 29 29 31 31 27 29 27 27 28 27 27 28
55 56 57 61 63 64 64 63 60 55 51 49 46 46 44 41 39 30 21 27 32 34 31 31 39 41 41 39 34 32 31 29 29 34 30 36 31 29 28 29 30 27 29
60 59 59 64 66 67 67 68 65 63 57 56 52 50 47 42 44 34 30 32 35 35 35 41 38 41 42 38 36 32 28 27 31 24 24 29 29 29 28 29 31 31 29
66 65 64 63 65 68 69 69 68 65 62 58 54 50 46 44 43 34 32 33 41 38 37 42 42 41 36 35 32 28 28 28 29 31 28 18 27 29 29 28 30 31 31
73 72 70 69 69 69 71 70 66 65 64 60 53 48 44 42 35 34 37 37 44 31 35 36 32 34 33 38 37 32 28 28 33 36 38 27 27 30 30 30 29 31 32
74 73 71 70 72 70 67 69 64 54 49 48 47 43 41 40 40 39 41 42 41 41 37 42 41 42 40 42 36 35 31 31 31 38 32 30 31 28 30 31 31 32 34
72 71 69 64 60 58 59 54 57 56 48 45 45 45 44 46 46 45 44 41 45 42 44 43 42 46 39 37 36 31 27 29 30 31 30 27 28 26 28 30 32 33 33
65 61 57 55 50 47 48 48 49 53 53 50 50 50 51 52 54 54 51 50 48 44 42 40 46 42 32 34 33 32 32 33 28 30 27 25 25 26 27 29 30 31 30
56 51 48 48 49 47 48 51 44 45 47 53 54 51 56 56 54 56 55 54 48 47 44 44 43 33 32 38 36 25 27 25 25 27 26 25 26 25 28 29 28 28 24
48 44 44 48 47 52 51 49 45 41 43 44 48 51 55 54 53 53 51 52 49 48 46 44 43 35 35 33 26 20 19 20 23 26 26 25 25 26 27 27 27 21 20
Wind_Direction
314 313 312 302 300 300 297 297 297 294 298 300 301 302 301 301 301 302 304 304 304 306 307 307 308 306 307 306 305 306 307 306 307 309 307 307 307 308 308 309 310 311 310
296 297 302 303 296 295 299 303 302 304 305 305 305 304 300 298 297 300 304 305 305 306 306 305 304 305 305 304 304 307 308 309 310 310 309 308 307 308 307 307 308 310 311
293 292 291 292 293 296 298 298 302 303 301 300 302 307 308 305 299 297 298 302 303 304 304 305 305 307 306 305 304 306 307 309 308 307 307 305 305 304 303 304 307 308 309
291 295 292 286 286 291 295 298 300 303 305 306 310 312 315 317 318 316 311 305 303 305 308 308 304 306 307 306 305 308 307 304 304 306 306 305 303 303 304 307 310 311 311
311 314 315 312 305 301 300 304 308 306 306 309 309 310 312 311 309 307 308 309 309 306 305 303 298 298 298 299 301 303 305 304 302 304 306 305 304 303 305 308 309 310 310
311 315 312 310 306 306 306 310 310 310 309 310 311 313 314 313 308 304 302 301 301 301 299 297 294 291 290 291 292 296 297 299 299 302 305 305 304 304 307 309 310 311 309
282 284 288 290 293 294 294 298 299 299 300 303 306 308 309 309 309 308 305 302 297 295 293 292 290 289 286 285 288 290 293 297 302 305 304 305 306 306 307 308 308 308 307
280 282 283 285 284 284 287 290 294 295 294 296 298 300 300 301 302 302 304 303 301 300 297 292 289 288 289 287 287 289 292 295 298 302 304 306 306 306 307 306 307 309 309
285 286 284 283 284 285 286 287 287 289 292 293 295 296 296 297 299 301 302 301 299 296 294 293 294 293 291 290 290 295 295 298 299 301 304 303 302 301 301 302 307 312 314
298 296 294 295 292 288 287 287 286 286 287 287 287 287 288 290 294 296 295 294 291 291 291 290 290 289 292 291 294 296 297 297 299 301 301 301 304 305 305 305 306 312 316
286 289 293 293 290 288 285 284 282 281 281 281 283 286 287 288 290 287 287 288 289 288 285 285 285 283 283 285 288 290 292 292 294 295 297 300 302 301 305 309 305 309 312
288 284 281 279 279 276 275 275 276 279 279 279 279 280 282 284 283 283 282 283 282 282 282 280 280 280 280 283 284 287 288 291 292 290 295 301 298 298 299 305 306 310 309
287 287 283 281 280 280 278 275 276 279 278 278 278 278 278 279 281 280 279 278 276 277 276 275 275 277 279 280 281 283 284 284 286 289 288 295 292 292 295 300 301 304 309
286 285 282 277 272 271 274 278 279 278 280 279 279 279 278 277 276 278 277 278 279 278 274 272 275 275 275 276 278 280 282 280 279 281 287 285 286 288 292 295 295 298 304
286 285 283 279 278 277 274 274 277 278 281 280 281 281 282 280 277 278 281 277 287 275 270 268 269 272 272 272 275 277 280 277 278 278 279 280 284 286 288 289 290 292 295
283 281 279 281 279 278 279 279 278 277 277 277 278 281 284 285 282 266 271 280 276 270 270 272 274 277 275 275 277 278 279 279 278 277 272 270 280 284 286 288 291 290 293
276 276 275 275 276 277 277 277 277 277 277 275 275 276 278 278 279 263 268 265 263 266 271 272 271 275 279 276 273 278 279 279 274 276 276 260 274 281 285 286 291 291 292
271 269 271 271 271 271 271 272 272 273 274 273 274 271 277 277 260 281 271 259 271 272 271 273 274 276 274 272 269 271 276 271 273 279 270 261 266 276 285 288 289 291 295
274 271 268 269 271 273 272 272 271 271 272 273 274 274 273 270 270 274 262 264 265 266 272 270 269 283 271 268 268 269 268 266 268 254 248 256 270 281 284 285 288 292 297
277 275 273 271 269 273 275 275 274 275 275 275 275 274 271 270 271 265 260 257 257 255 261 266 266 274 267 264 267 263 261 256 257 250 249 264 275 282 283 284 287 293 297
282 282 280 277 275 273 272 276 276 274 274 274 272 266 264 266 257 253 250 247 273 242 257 261 268 265 268 273 266 263 256 255 242 256 276 285 283 282 285 285 289 292 297
277 277 277 277 277 277 275 274 276 273 269 268 266 263 256 250 249 248 250 254 255 256 254 264 268 272 279 278 262 257 250 251 251 258 273 274 276 281 282 287 291 296 296
275 274 274 275 276 279 280 277 275 271 261 253 254 249 244 241 239 240 237 247 247 249 252 258 254 263 280 266 246 244 243 248 257 263 265 270 274 278 285 289 293 295 299
276 276 276 275 271 269 268 268 259 256 261 255 242 239 239 239 237 239 235 236 239 244 247 253 254 257 272 230 233 233 245 257 263 264 264 268 273 278 280 285 291 297 298
277 271 266 262 259 255 255 258 257 257 255 259 255 241 238 241 242 238 239 240 239 240 242 245 255 258 243 218 221 245 251 256 260 264 261 262 269 279 285 289 293 293 286
271 267 255 256 257 258 256 252 258 259 249 258 265 256 247 246 245 244 238 240 242 242 245 245 247 254 213 209 214 228 244 255 262 259 258 259 265 272 284 291 291 283 284
Height
5867 5868 5867 5866 5866 5866 5865 5864 5863 5862 5861 5860 5859 5858 5856 5855 5855 5855 5854 5852 5851 5851 5850 5849 5849 5848 5846 5845 5844 5843 5841 5839 5838 5837 5836 5834 5832 5830 5828 5826 5824 5822 5820
5868 5867 5866 5866 5865 5864 5864 5863 5863 5861 5860 5859 5858 5856 5855 5852 5852 5852 5850 5849 5849 5847 5847 5846 5846 5845 5843 5842 5840 5840 5838 5837 5836 5834 5833 5831 5829 5827 5825 5823 5822 5819 5817
5867 5866 5866 5865 5864 5863 5863 5862 5861 5860 5858 5857 5856 5854 5852 5850 5849 5848 5847 5846 5845 5844 5844 5844 5843 5842 5841 5839 5837 5838 5836 5835 5834 5832 5830 5828 5827 5825 5823 5821 5819 5816 5814
5865 5864 5864 5863 5862 5861 5861 5861 5858 5857 5855 5854 5853 5852 5850 5848 5847 5846 5845 5843 5842 5841 5841 5840 5840 5840 5839 5837 5835 5835 5834 5833 5831 5830 5828 5826 5824 5821 5819 5817 5814 5812 5809
5864 5863 5862 5861 5861 5860 5859 5858 5856 5855 5854 5852 5851 5850 5848 5847 5845 5844 5843 5842 5840 5838 5838 5837 5837 5836 5835 5834 5832 5831 5830 5829 5828 5827 5824 5822 5820 5818 5816 5813 5810 5808 5805
5861 5861 5860 5859 5858 5857 5856 5855 5854 5853 5852 5851 5851 5849 5848 5846 5845 5844 5842 5840 5838 5837 5835 5834 5833 5832 5831 5830 5829 5828 5827 5825 5825 5823 5821 5818 5816 5814 5811 5809 5807 5804 5802
5857 5857 5856 5855 5854 5854 5853 5852 5851 5851 5849 5849 5847 5846 5844 5843 5842 5841 5839 5838 5836 5834 5833 5831 5830 5829 5828 5827 5825 5824 5823 5822 5820 5818 5817 5815 5812 5810 5808 5805 5803 5800 5797
5855 5853 5852 5852 5851 5850 5849 5848 5847 5847 5846 5845 5844 5842 5842 5840 5839 5837 5836 5835 5834 5832 5831 5829 5827 5826 5826 5824 5821 5821 5820 5818 5816 5815 5813 5810 5808 5806 5804 5802 5799 5797 5793
5849 5849 5848 5848 5847 5846 5844 5843 5843 5842 5841 5840 5839 5838 5837 5836 5835 5834 5833 5832 5830 5829 5828 5826 5825 5824 5823 5822 5819 5818 5816 5814 5813 5811 5809 5807 5804 5802 5800 5797 5795 5793 5791
5847 5845 5845 5844 5842 5841 5840 5839 5838 5836 5835 5834 5834 5833 5832 5831 5830 5829 5828 5827 5826 5825 5825 5823 5821 5820 5820 5818 5816 5815 5813 5812 5810 5808 5805 5803 5800 5798 5795 5793 5791 5790 5788
5844 5842 5840 5838 5836 5837 5836 5834 5832 5830 5829 5828 5827 5826 5826 5826 5825 5823 5822 5820 5820 5820 5819 5818 5817 5816 5814 5814 5812 5811 5810 5808 5806 5804 5802 5798 5796 5794 5792 5789 5788 5786 5784
5836 5836 5834 5832 5830 5828 5828 5827 5826 5825 5823 5822 5821 5819 5819 5818 5818 5817 5817 5816 5814 5813 5813 5812 5811 5810 5809 5808 5808 5807 5806 5804 5801 5799 5797 5796 5793 5791 5789 5786 5785 5782 5781
5827 5826 5825 5822 5821 5820 5818 5818 5818 5818 5817 5815 5813 5811 5811 5810 5810 5810 5810 5810 5808 5807 5805 5805 5805 5805 5804 5802 5802 5802 5800 5799 5798 5795 5792 5791 5789 5788 5786 5783 5781 5779 5777
5818 5817 5816 5813 5812 5811 5809 5808 5805 5806 5807 5806 5804 5802 5802 5802 5803 5803 5803 5803 5802 5799 5797 5796 5796 5798 5797 5796 5796 5795 5796 5795 5793 5790 5788 5786 5785 5783 5782 5779 5777 5776 5774
5809 5806 5803 5801 5800 5799 5799 5797 5795 5794 5793 5793 5793 5793 5794 5794 5794 5795 5794 5794 5793 5789 5789 5788 5787 5788 5788 5788 5788 5787 5787 5788 5787 5786 5783 5782 5780 5778 5778 5776 5774 5773 5771
5798 5796 5792 5788 5786 5785 5786 5785 5786 5785 5783 5783 5783 5784 5786 5786 5785 5786 5784 5783 5783 5781 5781 5781 5779 5781 5782 5783 5783 5782 5781 5782 5782 5781 5779 5778 5776 5774 5774 5773 5771 5769 5767
5786 5784 5781 5776 5774 5773 5772 5773 5773 5774 5773 5771 5772 5774 5776 5777 5777 5776 5776 5774 5773 5775 5775 5774 5773 5773 5774 5774 5775 5776 5777 5776 5777 5776 5775 5773 5771 5771 5769 5767 5766 5764 5762
5773 5772 5768 5764 5761 5761 5760 5760 5761 5762 5762 5761 5761 5762 5764 5767 5767 5768 5765 5766 5767 5768 5766 5764 5764 5764 5765 5766 5767 5768 5769 5771 5771 5770 5767 5767 5766 5766 5764 5762 5759 5759 5757
5758 5757 5756 5750 5747 5745 5745 5744 5745 5747 5748 5748 5749 5749 5752 5754 5756 5758 5758 5759 5758 5759 5758 5757 5756 5757 5756 5758 5760 5761 5763 5766 5764 5756 5762 5761 5761 5760 5758 5757 5754 5752 5750
5741 5740 5739 5737 5735 5729 5727 5727 5729 5731 5733 5734 5735 5736 5738 5741 5744 5748 5749 5748 5748 5748 5750 5750 5748 5750 5750 5751 5752 5754 5757 5759 5759 5758 5758 5756 5757 5756 5753 5753 5750 5747 5745
5717 5715 5714 5715 5715 5715 5712 5709 5711 5714 5715 5719 5721 5722 5724 5729 5733 5736 5737 5737 5739 5729 5743 5743 5740 5743 5744 5744 5745 5748 5750 5751 5752 5751 5750 5752 5751 5749 5749 5747 5745 5742 5740
5700 5697 5695 5693 5692 5693 5696 5696 5694 5696 5698 5702 5704 5708 5712 5715 5720 5724 5727 5727 5728 5729 5731 5735 5735 5735 5735 5735 5736 5739 5742 5745 5746 5746 5746 5746 5746 5743 5742 5741 5738 5736 5734
5682 5679 5677 5676 5675 5676 5678 5679 5680 5678 5683 5687 5689 5692 5697 5701 5706 5710 5715 5717 5719 5722 5724 5726 5725 5725 5726 5726 5730 5733 5735 5739 5738 5741 5741 5741 5740 5739 5737 5736 5733 5731 5728
5661 5659 5658 5659 5660 5661 5663 5665 5666 5666 5665 5669 5673 5677 5681 5686 5692 5696 5701 5705 5708 5712 5715 5716 5715 5716 5717 5716 5720 5725 5729 5731 5733 5735 5734 5734 5734 5733 5731 5730 5727 5724 5722
5641 5642 5641 5640 5640 5643 5645 5651 5652 5655 5656 5655 5658 5664 5667 5671 5677 5683 5689 5693 5698 5702 5704 5706 5706 5706 5707 5712 5714 5718 5724 5725 5726 5728 5727 5727 5727 5727 5726 5725 5721 5719 5718
5623 5623 5623 5623 5626 5626 5628 5632 5637 5642 5646 5647 5646 5651 5655 5659 5664 5671 5678 5684 5688 5691 5695 5695 5697 5696 5698 5702 5708 5713 5716 5718 5720 5720 5721 5722 5720 5719 5719 5718 5716 5714 5714